STARLINK-35323 (66071 NORAD) Tracking and Keplerian Element Data

This shows tracking and keplerian element data for the satellite.

Feedback or suggestion? Click here.




ElementValue
Catalog66071
NameSTARLINK-35323
Epoch Orbit1072
Epoch Day353.99455549
Epoch Year2025
RAAN255.167
Inclination53.1611
Eccentricity0.0001443
Argument of Perigee100.7324
Mean Anonmoly259.384
Mean Motion15.30197384
Decay Rate9.252E-05
L11 66071U 25235P 25353.99455549 .00009252 00000+0 32415-3 0 9990
L22 66071 53.1611 255.1670 0001443 100.7324 259.3840 15.30197384 10726



Live tracking and technical data element details for STARLINK-35323 (NORAD 66071). STARLINK-35323 can be tracked NOW for your location showing map with azimuth and elevation plus other details from your city location.







IsCatalogInMostPopularTable: catalog: 66071, numindb: 8
Update: records affected: 1



GetName: 66071 STARLINK-35323

Hit Count: updated at: Thu, 16 Apr 2026 05:53:05 GMT